GW2326 Weather Reports


time (UTC)temp
C
wind
direction
speed
KPH
gust
KPH
rain 1hr
cm
rain 24hr
cm
rain mn
cm
humidity
%
barometer
mb
20260510061050 21 182 8.0 16.1 0.00 0.00 0.00 75 1012.3
20260510060552 21 185 8.0 16.1 0.00 0.00 0.00 75 1012.3
20260510060056 21 211 8.0 12.9 0.00 0.00 0.00 76 1012.2
20260510055549 21 202 8.0 12.9 0.00 0.00 0.00 76 1012.3
20260510055049 21 221 8.0 11.3 0.00 0.00 0.00 76 1012.4
20260510054552 21 176 8.0 11.3 0.00 0.00 0.00 76 1012.3
20260510054048 22 206 8.0 12.9 0.00 0.00 0.00 75 1012.3
20260510053546 22 203 9.7 12.9 0.00 0.00 0.00 74 1012.3
20260510053054 22 196 8.0 12.9 0.00 0.00 0.00 73 1012.2
20260510052548 22 217 9.7 12.9 0.00 0.00 0.00 73 1012.1
20260510052048 22 170 9.7 12.9 0.00 0.00 0.00 72 1012.2
20260510051553 22 202 8.0 14.5 0.00 0.00 0.00 72 1012.2
20260510051048 22 198 9.7 14.5 0.00 0.00 0.00 72 1012.1
20260510050549 22 192 9.7 12.9 0.00 0.00 0.00 72 1012.1
20260510050053 22 208 8.0 12.9 0.00 0.00 0.00 72 1012.1
20260510045550 22 209 6.4 12.9 0.00 0.00 0.00 71 1012.2
20260510045050 22 205 6.4 12.9 0.00 0.00 0.00 71 1012.2
20260510044551 22 199 8.0 12.9 0.00 0.00 0.00 71 1012.2
20260510044047 22 209 8.0 12.9 0.00 0.00 0.00 70 1012.2
20260510043549 23 201 8.0 12.9 0.00 0.00 0.00 70 1012.2
20260510043058 23 217 8.0 9.7 0.00 0.00 0.00 69 1012.3
20260510042549 23 222 8.0 14.5 0.00 0.00 0.00 68 1012.4
20260510042048 23 200 8.0 14.5 0.00 0.00 0.00 67 1012.3
20260510041557 23 195 6.4 12.9 0.00 0.00 0.00 66 1012.4
20260510041048 23 197 6.4 11.3 0.00 0.00 0.00 65 1012.4
20260510040547 23 181 6.4 12.9 0.00 0.00 0.00 65 1012.3
20260510040054 24 211 8.0 16.1 0.00 0.00 0.00 64 1012.1
20260510035548 24 191 9.7 17.7 0.00 0.00 0.00 63 1012.1
20260510035047 24 171 11.3 17.7 0.00 0.00 0.00 63 1012.1
20260510034618 25 162 12.9 17.7 0.00 0.00 0.00 62 1012.1
20260510034047 25 183 14.5 17.7 0.00 0.00 0.00 61 1012.1
20260510033549 25 172 14.5 17.7 0.00 0.00 0.00 61 1012.1
20260510033058 25 180 14.5 22.5 0.00 0.00 0.00 60 1012.0
20260510032549 25 170 14.5 22.5 0.00 0.00 0.00 59 1012.1
20260510032048 25 169 16.1 22.5 0.00 0.00 0.00 58 1012.0
20260510031553 25 173 14.5 19.3 0.00 0.00 0.00 57 1012.0
20260510031048 25 163 14.5 19.3 0.00 0.00 0.00 56 1012.0
20260510030547 26 174 14.5 19.3 0.00 0.00 0.00 56 1011.9
20260510030110 26 180 14.5 19.3 0.00 0.00 0.00 56 1011.9
20260510025546 26 169 14.5 19.3 0.00 0.00 0.00 56 1011.9
20260510025048 26 178 12.9 17.7 0.00 0.00 0.00 56 1011.8
20260510024559 26 170 12.9 17.7 0.00 0.00 0.00 55 1011.7
20260510024049 26 179 12.9 17.7 0.00 0.00 0.00 54 1011.7
20260510023548 26 173 12.9 17.7 0.00 0.00 0.00 53 1011.6
20260510023056 26 167 12.9 16.1 0.00 0.00 0.00 53 1011.7
20260510022552 26 169 11.3 16.1 0.00 0.00 0.00 52 1011.7
20260510022050 27 168 11.3 17.7 0.00 0.00 0.00 51 1011.6
20260510021604 27 173 12.9 17.7 0.00 0.00 0.00 50 1011.4
20260510021049 27 165 12.9 17.7 0.00 0.00 0.00 50 1011.4
20260510020550 27 174 12.9 16.1 0.00 0.00 0.00 49 1011.4
20260510020053 27 169 12.9 16.1 0.00 0.00 0.00 48 1011.4
20260510015549 27 170 9.7 14.5 0.00 0.00 0.00 47 1011.4
20260510015049 28 169 9.7 14.5 0.00 0.00 0.00 46 1011.3
20260510014600 28 171 9.7 14.5 0.00 0.00 0.00 45 1011.2
20260510014049 28 174 8.0 12.9 0.00 0.00 0.00 45 1011.2
20260510013552 28 202 6.4 11.3 0.00 0.00 0.00 44 1011.0
20260510013103 29 202 8.0 11.3 0.00 0.00 0.00 43 1010.9
20260510012549 29 187 8.0 12.9 0.00 0.00 0.00 42 1010.8
20260510012046 30 183 8.0 14.5 0.00 0.00 0.00 41 1010.7
20260510011556 30 181 9.7 14.5 0.00 0.00 0.00 41 1010.7
20260510011050 30 192 9.7 12.9 0.00 0.00 0.00 40 1010.7
20260510010549 30 196 8.0 16.1 0.00 0.00 0.00 38 1010.7
20260510010055 30 182 11.3 19.3 0.00 0.00 0.00 37 1010.8
20260510005549 31 159 11.3 19.3 0.00 0.00 0.00 37 1010.7
20260510005049 31 161 11.3 25.7 0.00 0.00 0.00 36 1010.7
20260510004552 31 196 14.5 25.7 0.00 0.00 0.00 36 1010.7
20260510004049 31 174 14.5 24.1 0.00 0.00 0.00 37 1010.6
20260510003549 31 174 12.9 19.3 0.00 0.00 0.00 37 1010.7
20260510003104 31 198 12.9 24.1 0.00 0.00 0.00 38 1010.6
20260510002548 31 214 16.1 24.1 0.00 0.00 0.00 38 1010.6
20260510002048 31 198 12.9 19.3 0.00 0.00 0.00 38 1010.7
20260510001554 31 246 12.9 19.3 0.00 0.00 0.00 38 1010.6
20260510001049 31 223 11.3 19.3 0.00 0.00 0.00 38 1010.7
20260510000552 31 197 12.9 24.1 0.00 0.00 0.00 38 1010.6
20260510000126 31 230 14.5 24.1 0.00 0.00 0.00 37 1010.5
20260509235549 32 226 12.9 24.1 0.00 0.00 0.00 36 1010.5
20260509235047 32 179 4.8 19.3 0.00 0.00 0.00 37 1010.4
20260509234552 31 221 11.3 19.3 0.00 0.00 0.00 38 1010.4
20260509234050 32 197 11.3 22.5 0.00 0.00 0.00 38 1010.4
20260509233548 32 238 12.9 25.7 0.00 0.00 0.00 38 1010.4
20260509233054 32 208 8.0 25.7 0.00 0.00 0.00 37 1010.5
20260509232550 32 225 11.3 20.9 0.00 0.00 0.00 37 1010.6
20260509232049 32 227 12.9 20.9 0.00 0.00 0.00 37 1010.5
20260509231559 32 225 9.7 20.9 0.00 0.00 0.00 37 1010.5
20260509231048 32 236 11.3 22.5 0.00 0.00 0.00 37 1010.6
20260509230549 32 219 16.1 22.5 0.00 0.00 0.00 37 1010.5
20260509230057 32 190 6.4 24.1 0.00 0.00 0.00 37 1010.6
20260509225550 32 200 8.0 24.1 0.00 0.00 0.00 36 1010.7
20260509225049 32 150 14.5 24.1 0.00 0.00 0.00 37 1010.6
20260509224556 32 195 14.5 24.1 0.00 0.00 0.00 37 1010.6
20260509224049 32 215 14.5 24.1 0.00 0.00 0.00 35 1010.6
20260509223550 32 188 9.7 19.3 0.00 0.00 0.00 34 1010.5
20260509223103 32 224 8.0 24.1 0.00 0.00 0.00 35 1010.4
20260509222549 32 236 11.3 25.7 0.00 0.00 0.00 34 1010.4
20260509222049 32 163 14.5 25.7 0.00 0.00 0.00 35 1010.4
20260509221604 32 230 11.3 24.1 0.00 0.00 0.00 36 1010.4
20260509221049 32 182 12.9 24.1 0.00 0.00 0.00 37 1010.5
20260509220549 32 212 14.5 24.1 0.00 0.00 0.00 37 1010.5
20260509220056 32 215 11.3 27.4 0.00 0.00 0.00 35 1010.5
20260509215549 32 232 16.1 27.4 0.00 0.00 0.00 35 1010.6
20260509215053 32 229 11.3 27.4 0.00 0.00 0.00 36 1010.6
20260509214602 32 201 11.3 16.1 0.00 0.00 0.00 36 1010.7
20260509214048 32 0 4.8 17.7 0.00 0.00 0.00 37 1010.6
20260509213549 32 217 9.7 22.5 0.00 0.00 0.00 35 1011.0
20260509213053 32 242 12.9 25.7 0.00 0.00 0.00 35 1011.0
20260509212549 31 234 9.7 27.4 0.00 0.00 0.00 38 1011.1
20260509212049 31 155 12.9 27.4 0.00 0.00 0.00 38 1011.2
20260509211553 32 231 16.1 27.4 0.00 0.00 0.00 37 1011.3
20260509211047 31 240 8.0 22.5 0.00 0.00 0.00 38 1011.3
20260509210549 32 226 14.5 22.5 0.00 0.00 0.00 37 1011.4
20260509210051 31 188 8.0 25.7 0.00 0.00 0.00 39 1011.5
20260509205550 31 230 14.5 25.7 0.00 0.00 0.00 39 1011.5
20260509205049 31 161 11.3 25.7 0.00 0.00 0.00 39 1011.6
20260509204553 31 239 14.5 25.7 0.00 0.00 0.00 39 1011.7
20260509204049 31 171 6.4 27.4 0.00 0.00 0.00 38 1011.6
20260509203552 31 161 12.9 33.8 0.00 0.00 0.00 36 1011.8
20260509203055 31 167 19.3 33.8 0.00 0.00 0.00 38 1011.9
20260509202549 31 170 14.5 25.7 0.00 0.00 0.00 39 1011.9
20260509202050 31 239 6.4 27.4 0.00 0.00 0.00 37 1012.0
20260509201554 31 201 11.3 27.4 0.00 0.00 0.00 38 1012.2
20260509201049 31 180 16.1 32.2 0.00 0.00 0.00 38 1012.4
20260509200547 31 165 12.9 32.2 0.00 0.00 0.00 37 1012.3
20260509200108 31 215 17.7 32.2 0.00 0.00 0.00 43 1012.3
20260509195547 31 171 9.7 29.0 0.00 0.00 0.00 41 1012.4
20260509195048 31 230 11.3 29.0 0.00 0.00 0.00 42 1012.3
20260509194556 30 248 14.5 29.0 0.00 0.00 0.00 42 1012.5
20260509194047 30 233 8.0 33.8 0.00 0.00 0.00 43 1012.6
20260509193550 30 250 11.3 33.8 0.00 0.00 0.00 42 1012.7
20260509193056 30 238 20.9 33.8 0.00 0.00 0.00 40 1012.7
20260509192547 30 238 11.3 32.2 0.00 0.00 0.00 43 1012.7
20260509192053 30 207 14.5 32.2 0.00 0.00 0.00 44 1012.8
20260509191552 30 163 12.9 27.4 0.00 0.00 0.00 44 1012.8
20260509191049 30 173 17.7 27.4 0.00 0.00 0.00 46 1013.0
20260509190549 30 234 11.3 24.1 0.00 0.00 0.00 46 1013.1
20260509190054 29 223 12.9 29.0 0.00 0.00 0.00 45 1013.2
20260509185552 29 221 17.7 29.0 0.00 0.00 0.00 47 1013.2
20260509185048 29 236 14.5 27.4 0.00 0.00 0.00 46 1013.2
20260509184555 29 232 14.5 27.4 0.00 0.00 0.00 46 1013.3
20260509184048 29 217 9.7 25.7 0.00 0.00 0.00 47 1013.3
20260509183548 29 227 9.7 24.1 0.00 0.00 0.00 48 1013.4
20260509183109 29 182 14.5 24.1 0.00 0.00 0.00 47 1013.5
20260509182549 28 202 11.3 27.4 0.00 0.00 0.00 48 1013.5
20260509182051 29 160 12.9 27.4 0.00 0.00 0.00 49 1013.5
20260509181554 29 214 14.5 25.7 0.00 0.00 0.00 48 1013.7
20260509181050 28 199 11.3 22.5 0.00 0.00 0.00 50 1013.8
20260509180553 28 279 9.7 22.5 0.00 0.00 0.00 52 1013.6
20260509180056 28 226 14.5 22.5 0.00 0.00 0.00 50 1013.9
20260509175551 28 241 4.8 22.5 0.00 0.00 0.00 51 1013.9
20260509175050 28 171 9.7 22.5 0.00 0.00 0.00 51 1014.0
20260509174556 28 165 11.3 22.5 0.00 0.00 0.00 53 1013.9
20260509174049 28 221 11.3 22.5 0.00 0.00 0.00 53 1014.0
20260509173551 28 165 6.4 22.5 0.00 0.00 0.00 53 1014.1
20260509173102 28 220 8.0 20.9 0.00 0.00 0.00 53 1014.2
20260509172548 27 172 11.3 20.9 0.00 0.00 0.00 54 1014.1
20260509172048 27 223 6.4 16.1 0.00 0.00 0.00 55 1014.2
20260509171558 27 168 9.7 16.1 0.00 0.00 0.00 54 1014.2
20260509171051 27 224 8.0 17.7 0.00 0.00 0.00 55 1014.3
20260509170554 27 216 9.7 19.3 0.00 0.00 0.00 56 1014.4
20260509165551 27 205 8.0 24.1 0.00 0.00 0.00 55 1014.3
20260509165051 27 193 11.3 24.1 0.00 0.00 0.00 57 1014.3
20260509164602 26 223 9.7 22.5 0.00 0.00 0.00 59 1014.3
20260509164051 26 221 9.7 22.5 0.00 0.00 0.00 59 1014.3
20260509163551 26 193 11.3 22.5 0.00 0.00 0.00 60 1014.3
20260509163105 26 234 8.0 22.5 0.00 0.00 0.00 60 1014.1
20260509162551 26 233 12.9 22.5 0.00 0.00 0.00 60 1014.1
20260509162048 26 200 9.7 16.1 0.00 0.00 0.00 61 1014.1
20260509161600 26 232 6.4 16.1 0.00 0.00 0.00 63 1014.1
20260509161051 25 259 6.4 17.7 0.00 0.00 0.00 63 1014.0
20260509160548 25 204 8.0 17.7 0.00 0.00 0.00 65 1014.0
20260509160057 25 191 4.8 11.3 0.00 0.00 0.00 67 1014.1
20260509155551 25 250 3.2 11.3 0.00 0.00 0.00 69 1014.1
20260509155049 25 285 6.4 14.5 0.00 0.00 0.00 69 1014.2
20260509154603 25 230 6.4 14.5 0.00 0.00 0.00 70 1014.3
20260509154050 24 224 4.8 11.3 0.00 0.00 0.00 71 1014.3
20260509153549 24 286 3.2 11.3 0.00 0.00 0.00 71 1014.3
20260509153059 23 242 4.8 11.3 0.00 0.00 0.00 73 1014.4
20260509152550 23 310 3.2 12.9 0.00 0.00 0.00 76 1014.5
20260509152050 23 243 8.0 16.1 0.00 0.00 0.00 75 1014.5
20260509151557 23 253 6.4 16.1 0.00 0.00 0.00 78 1014.5
20260509151050 22 241 3.2 12.9 0.00 0.00 0.00 79 1014.5
20260509150551 22 225 6.4 12.9 0.00 0.00 0.00 79 1014.6
20260509150051 22 234 3.2 11.3 0.00 0.00 0.00 82 1014.7
20260509145550 22 276 4.8 11.3 0.00 0.00 0.00 83 1014.8
20260509145049 21 294 4.8 12.9 0.00 0.00 0.00 84 1014.7
20260509144556 21 221 3.2 12.9 0.00 0.00 0.00 86 1014.8
20260509144048 21 258 1.6 11.3 0.00 0.00 0.00 88 1015.0
20260509143548 21 246 6.4 11.3 0.00 0.00 0.00 88 1015.0
20260509143058 21 265 1.6 6.4 0.00 0.00 0.00 90 1014.9
20260509142549 20 273 0.0 4.8 0.00 0.00 0.00 91 1015.0
20260509142049 20 309 1.6 6.4 0.00 0.00 0.00 92 1015.0
20260509141600 20 336 3.2 6.4 0.00 0.00 0.00 93 1015.0
20260509141050 20 311 1.6 6.4 0.00 0.00 0.00 94 1014.9
20260509140549 20 302 3.2 6.4 0.00 0.00 0.00 95 1014.9
20260509135549 19 0 0.0 3.2 0.00 0.00 0.00 96 1014.8
20260509135051 18 0 0.0 4.8 0.00 0.00 0.00 96 1014.7
20260509134552 18 0 0.0 4.8 0.00 0.00 0.00 97 1014.7
20260509134047 18 0 0.0 4.8 0.00 0.00 0.00 97 1014.7
20260509133547 18 244 1.6 6.4 0.00 0.00 0.00 97 1014.7
20260509133054 18 304 0.0 8.0 0.00 0.00 0.00 97 1014.7
20260509132551 17 238 3.2 11.3 0.00 0.00 0.00 97 1014.6
20260509132047 17 225 4.8 11.3 0.00 0.00 0.00 96 1014.5
20260509131554 17 233 4.8 11.3 0.00 0.00 0.00 96 1014.7
20260509131049 17 232 8.0 11.3 0.00 0.00 0.00 96 1014.5
20260509130549 17 221 4.8 11.3 0.00 0.00 0.00 96 1014.4
20260509130052 16 225 6.4 11.3 0.00 0.00 0.00 96 1014.4
20260509125549 16 231 8.0 11.3 0.00 0.00 0.00 96 1014.3
20260509125049 16 220 4.8 8.0 0.00 0.00 0.00 96 1014.3
20260509124552 16 225 1.6 6.4 0.00 0.00 0.00 96 1014.4
20260509124047 16 265 1.6 8.0 0.00 0.00 0.00 96 1014.4
20260509123549 16 232 6.4 8.0 0.00 0.00 0.00 96 1014.4
20260509123109 16 238 4.8 8.0 0.00 0.00 0.00 95 1014.1
20260509122550 16 232 4.8 6.4 0.00 0.00 0.00 95 1014.1
20260509122048 16 232 0.0 6.4 0.00 0.00 0.00 95 1014.0
20260509121559 16 230 1.6 11.3 0.00 0.00 0.00 95 1014.0
20260509121050 16 203 6.4 12.9 0.00 0.00 0.00 95 1014.1
20260509120547 16 159 8.0 12.9 0.00 0.00 0.00 96 1014.1
20260509120052 16 157 8.0 11.3 0.00 0.00 0.00 95 1014.0
20260509115549 16 188 3.2 12.9 0.00 0.00 0.00 95 1013.9
20260509115049 16 192 4.8 14.5 0.00 0.00 0.00 95 1013.8
20260509114552 16 171 9.7 14.5 0.00 0.00 0.00 95 1014.1
20260509114049 16 186 4.8 14.5 0.00 0.00 0.00 95 1014.0
20260509113554 17 180 9.7 14.5 0.00 0.00 0.00 95 1014.1
20260509113055 16 136 9.7 12.9 0.00 0.00 0.00 95 1014.1
20260509112549 16 126 9.7 12.9 0.00 0.00 0.00 95 1014.1
20260509112049 16 135 8.0 12.9 0.00 0.00 0.00 95 1014.1
20260509111551 16 140 4.8 12.9 0.00 0.00 0.00 94 1013.9
20260509111049 16 151 9.7 12.9 0.00 0.00 0.00 95 1013.8
20260509110548 16 155 8.0 14.5 0.00 0.00 0.00 95 1013.8
20260509110053 16 149 9.7 14.5 0.00 0.00 0.00 95 1013.6
20260509105548 16 152 11.3 14.5 0.00 0.00 0.00 95 1013.5
20260509105050 16 138 4.8 9.7 0.00 0.00 0.00 95 1013.5
20260509104552 16 0 3.2 14.5 0.00 0.00 0.00 95 1013.5
20260509104049 16 162 11.3 14.5 0.00 0.00 0.00 95 1013.3
20260509103550 16 145 1.6 8.0 0.00 0.00 0.00 95 1013.3
20260509103101 16 0 0.0 6.4 0.00 0.00 0.00 94 1013.2
20260509102549 16 185 1.6 6.4 0.00 0.00 0.00 94 1013.2
20260509102050 16 213 3.2 8.0 0.00 0.00 0.00 94 1013.1
20260509101554 16 229 4.8 12.9 0.00 0.00 0.00 94 1013.1
20260509101050 17 218 6.4 16.1 0.00 0.00 0.00 94 1013.1
20260509100549 17 197 9.7 16.1 0.00 0.00 0.00 95 1013.0
20260509100055 17 231 8.0 12.9 0.00 0.00 0.00 95 1013.0
20260509095549 17 230 6.4 11.3 0.00 0.00 0.00 95 1013.3
20260509095048 17 216 6.4 11.3 0.00 0.00 0.00 95 1013.4
20260509094553 17 237 6.4 9.7 0.00 0.00 0.00 95 1013.6
20260509094048 17 223 6.4 9.7 0.00 0.00 0.00 95 1013.5
20260509093550 17 227 6.4 9.7 0.00 0.00 0.00 95 1013.8
20260509093052 17 228 6.4 9.7 0.00 0.00 0.00 95 1013.8
20260509092550 17 204 4.8 11.3 0.00 0.00 0.00 95 1014.0
20260509092049 17 175 8.0 12.9 0.00 0.00 0.00 95 1014.1
20260509091553 17 167 6.4 19.3 0.00 0.00 0.00 95 1014.3
20260509091051 17 128 11.3 19.3 0.00 0.00 0.00 95 1014.3
20260509090550 17 130 17.7 19.3 0.00 0.00 0.00 95 1014.2
20260509090100 17 144 14.5 19.3 0.00 0.00 0.00 95 1014.0
20260509085549 18 137 16.1 19.3 0.00 0.00 0.00 95 1014.0
20260509085051 18 130 12.9 17.7 0.00 0.00 0.00 95 1013.8
20260509084554 18 130 14.5 17.7 0.00 0.00 0.00 95 1013.9
20260509084049 18 118 12.9 16.1 0.00 0.00 0.00 95 1014.0
20260509083552 18 114 9.7 19.3 0.00 0.00 0.00 95 1013.9
20260509083058 18 110 11.3 20.9 0.00 0.00 0.00 95 1014.0
20260509082547 18 96 16.1 20.9 0.00 0.00 0.00 94 1014.1
20260509082048 18 88 16.1 20.9 0.00 0.00 0.00 94 1014.0
20260509081552 18 117 12.9 20.9 0.00 0.00 0.00 93 1013.8
20260509081050 18 115 11.3 20.9 0.00 0.00 0.00 93 1013.7
20260509080553 18 154 16.1 20.9 0.00 0.00 0.00 93 1013.4
20260509080059 18 0 0.0 8.0 0.00 0.00 0.00 93 1013.7
20260509075549 18 134 1.6 8.0 0.00 0.00 0.00 93 1013.7
20260509075049 18 13 6.4 8.0 0.00 0.00 0.00 93 1014.1
20260509074606 18 63 1.6 11.3 0.00 0.00 0.00 93 1013.9
20260509074046 18 44 6.4 12.9 0.00 0.00 0.00 93 1013.9
20260509073549 18 10 6.4 12.9 0.00 0.00 0.00 93 1014.0
20260509073054 18 10 9.7 14.5 0.00 0.00 0.00 93 1014.0
20260509072547 18 360 6.4 25.7 0.00 0.00 0.00 92 1013.9
20260509072049 18 340 17.7 25.7 0.00 0.00 0.00 93 1013.9
20260509071609 18 340 16.1 20.9 0.00 0.00 0.00 91 1014.1
20260509071050 18 345 6.4 16.1 0.00 0.00 0.00 91 1013.7
20260509070550 18 22 11.3 16.1 0.00 0.00 0.00 90 1013.6
20260509070057 18 348 4.8 12.9 0.00 0.00 0.00 91 1013.5
20260509065551 18 0 1.6 4.8 0.00 0.00 0.00 91 1013.0
20260509065049 18 207 3.2 6.4 0.00 0.00 0.00 91 1012.6
20260509064601 18 185 3.2 9.7 0.00 0.00 0.00 91 1012.5
20260509064049 18 184 4.8 14.5 0.00 0.00 0.00 91 1012.4
20260509063549 18 196 8.0 16.1 0.00 0.00 0.00 92 1012.3
20260509063052 18 183 11.3 16.1 0.00 0.00 0.00 92 1012.3
20260509062549 18 172 6.4 11.3 0.00 0.00 0.00 92 1012.2
20260509062049 18 194 6.4 11.3 0.00 0.00 0.00 92 1012.1
20260509061601 18 203 6.4 11.3 0.00 0.00 0.00 92 1012.2